Location: Unspecified
(0.0000°N, 0.0000°E)
Time: 06:32:33
(UTC+00:00)

Transit 2A - All Passes

Search period start: 21 November 2017 00:00
Search period end: 01 December 2017 00:00
Orbit: 591 x 968 km, 66.7° (Epoch: 20 November)

Date Brightness Start Highest point End Pass type
(mag) Time Alt. Az. Time Alt. Az. Time Alt. Az.
21 Nov - 06:13:41 10° NNW 06:19:28 87° ENE 06:24:41 10° SSE daylight
21 Nov - 17:06:47 10° SE 17:09:33 15° ESE 17:12:28 10° ENE daylight
21 Nov - 18:47:58 10° SW 18:52:22 31° WNW 18:57:11 10° N visible
22 Nov - 05:39:51 10° N 05:45:27 52° ENE 05:50:31 10° SE daylight
22 Nov - 18:13:30 10° SSW 18:18:18 54° WNW 18:23:39 10° N visible
23 Nov - 05:06:22 10° N 05:11:24 31° ENE 05:16:00 10° SE visible
23 Nov - 06:50:39 10° WNW 06:54:14 18° WSW 06:57:39 10° SSW daylight
23 Nov - 17:39:23 10° SSW 17:44:17 88° ESE 17:49:48 10° NNE daylight
24 Nov - 04:33:22 10° NNE 04:37:18 19° ENE 04:41:00 10° ESE visible
24 Nov - 06:15:29 10° NW 06:20:19 29° WSW 06:24:45 10° SSW daylight
24 Nov - 17:05:34 10° S 17:10:19 51° ESE 17:15:36 10° NNE daylight
25 Nov - 04:01:43 10° NE 04:03:11 11° ENE 04:04:36 10° E visible
25 Nov - 05:40:53 10° NW 05:46:22 49° WSW 05:51:18 10° S daylight
25 Nov - 16:32:06 10° SSE 16:36:23 29° ESE 16:41:02 10° NE daylight
25 Nov - 18:16:08 10° WSW 18:19:24 17° WNW 18:22:53 10° NNW visible
26 Nov - 05:06:40 10° NNW 05:12:24 84° WSW 05:17:32 10° SSE visible
26 Nov - 15:59:12 10° SSE 16:02:27 17° ESE 16:05:54 10° ENE daylight
26 Nov - 17:40:59 10° SW 17:45:18 28° WNW 17:50:00 10° N daylight
27 Nov - 04:32:46 10° N 04:38:24 58° ENE 04:43:26 10° SSE visible
27 Nov - 17:06:25 10° SW 17:11:14 48° WNW 17:16:34 10° N daylight
28 Nov - 03:59:11 10° N 04:04:20 34° ENE 04:09:01 10° SE visible
28 Nov - 05:44:05 10° WNW 05:47:09 15° WSW 05:50:04 10° SW daylight
28 Nov - 16:32:13 10° SSW 16:37:12 82° WNW 16:42:46 10° NNE daylight
29 Nov - 03:26:04 10° NNE 03:30:15 21° ENE 03:34:08 10° ESE visible
29 Nov - 05:08:41 10° NW 05:13:12 26° WSW 05:17:23 10° SSW visible
29 Nov - 15:58:20 10° S 16:03:13 58° ESE 16:08:40 10° NNE daylight
30 Nov - 02:53:54 10° NE 02:56:08 12° ENE 02:58:16 10° E visible
30 Nov - 04:33:59 10° NW 04:39:16 43° WSW 04:44:04 10° S visible
30 Nov - 15:24:47 10° S 15:29:16 34° ESE 15:34:11 10° NE daylight
30 Nov - 17:09:21 10° WSW 17:12:20 15° WNW 17:15:29 10° NNW daylight
